DRK200 VQPR-VIDP

Flight info

Callsign DRK200
Flight time 1h 41m
Altitude 38000
Route PRO G348 BGD Q18 ELPUR Z2 JAL
Aircraft A319/M-SDE3FGHIRWY/LB1

Departure

Time 2025-09-09 10:58
Airport Paro International Airport (VQPR)

Arrival

Time 2025-09-09 12:39
Airport Indira Gandhi International Airport (VIDP)
Time Latitude Longitude Altitude Speed Heading
2025-09-09 10:21 27.40629 89.42102 7356 ft 0 kts 240°
2025-09-09 10:47 27.40649 89.42148 7357 ft 3 kts 287°
2025-09-09 10:48 27.40629 89.42173 7357 ft 2 kts 329°
2025-09-09 10:48 27.40626 89.42175 7357 ft 0 kts 329°
2025-09-09 10:52 27.40638 89.42167 7356 ft 4 kts 330°
2025-09-09 10:53 27.40692 89.42132 7358 ft 7 kts 330°
2025-09-09 10:53 27.40805 89.42065 7361 ft 6 kts 358°
2025-09-09 10:54 27.40857 89.42131 7362 ft 4 kts 10°
2025-09-09 10:54 27.40918 89.42093 7364 ft 8 kts 330°
2025-09-09 10:54 27.40974 89.42057 7366 ft 11 kts 330°
2025-09-09 10:55 27.41123 89.41962 7370 ft 12 kts 330°
2025-09-09 10:56 27.41195 89.41911 7372 ft 1 kts 78°
2025-09-09 10:56 27.41134 89.41957 7370 ft 11 kts 151°
2025-09-09 10:57 27.40344 89.42457 7343 ft 138 kts 150°
2025-09-09 10:57 27.38373 89.43948 8229 ft 181 kts 128°
2025-09-09 10:57 27.37578 89.45059 8974 ft 184 kts 140°
2025-09-09 10:58 27.34653 89.47672 11316 ft 183 kts 118°
2025-09-09 10:58 27.34226 89.49015 12059 ft 184 kts 103°
2025-09-09 10:59 27.33688 89.51933 13203 ft 206 kts 112°
2025-09-09 11:00 27.28278 89.52762 14187 ft 277 kts 237°
2025-09-09 11:00 27.27703 89.48240 14541 ft 321 kts 273°
2025-09-09 11:01 27.26408 89.43172 14791 ft 365 kts 237°
2025-09-09 11:01 27.25062 89.40697 15201 ft 375 kts 240°
2025-09-09 11:02 27.22525 89.35507 16365 ft 383 kts 242°
2025-09-09 11:02 27.19999 89.30198 17570 ft 390 kts 242°
2025-09-09 11:02 27.18696 89.27517 18157 ft 393 kts 241°
2025-09-09 11:03 27.16021 89.22110 19193 ft 400 kts 241°
2025-09-09 11:04 27.11889 89.13837 20726 ft 409 kts 241°
2025-09-09 11:04 27.09094 89.08218 21695 ft 416 kts 241°
2025-09-09 11:05 27.06250 89.02514 22638 ft 422 kts 240°
2025-09-09 11:05 27.03365 88.96727 23512 ft 428 kts 240°
2025-09-09 11:06 27.00433 88.90858 24215 ft 435 kts 240°
2025-09-09 11:06 26.98948 88.87893 24564 ft 438 kts 240°
2025-09-09 11:06 26.95876 88.81944 25245 ft 444 kts 238°
2025-09-09 11:09 26.80941 88.54699 28295 ft 469 kts 238°
2025-09-09 11:11 26.65575 88.30537 30666 ft 486 kts 213°
2025-09-09 11:13 26.42564 88.15346 33898 ft 476 kts 208°
2025-09-09 11:15 26.19918 88.00546 36821 ft 469 kts 209°
2025-09-09 11:17 26.06630 87.73309 37789 ft 471 kts 259°
2025-09-09 11:19 26.02334 87.48318 37794 ft 470 kts 259°
2025-09-09 11:21 25.97432 87.19812 37775 ft 469 kts 263°
2025-09-09 11:22 26.01893 86.95137 37764 ft 469 kts 285°
2025-09-09 11:25 26.09520 86.63605 37774 ft 469 kts 285°
2025-09-09 11:27 26.16237 86.35618 37763 ft 469 kts 285°
2025-09-09 11:29 26.22911 86.07533 37766 ft 469 kts 285°
2025-09-09 11:31 26.29536 85.79368 37765 ft 470 kts 284°
2025-09-09 11:33 26.36086 85.52469 37767 ft 470 kts 287°
2025-09-09 11:35 26.43311 85.24467 37774 ft 470 kts 286°
2025-09-09 11:37 26.50443 84.96408 37767 ft 470 kts 285°
2025-09-09 11:39 26.57511 84.68319 37762 ft 470 kts 285°
2025-09-09 11:41 26.64525 84.40213 37755 ft 469 kts 285°
2025-09-09 11:43 26.71617 84.12183 37760 ft 469 kts 286°
2025-09-09 11:45 26.78607 83.84113 37772 ft 468 kts 284°
2025-09-09 11:47 26.85039 83.55888 37740 ft 468 kts 284°
2025-09-09 11:49 26.91473 83.27640 37722 ft 468 kts 284°
2025-09-09 11:51 26.97853 82.99327 37734 ft 468 kts 284°
2025-09-09 11:53 27.03995 82.70936 37738 ft 468 kts 283°
2025-09-09 11:55 27.10077 82.42533 37742 ft 468 kts 283°
2025-09-09 11:57 27.16121 82.14169 37738 ft 468 kts 284°
2025-09-09 11:59 27.22383 81.85735 37740 ft 469 kts 283°
2025-09-09 12:01 27.28580 81.57201 37746 ft 470 kts 283°
2025-09-09 12:02 27.33973 81.32165 37741 ft 471 kts 283°
2025-09-09 12:05 27.40845 80.99859 37730 ft 473 kts 283°
2025-09-09 12:07 27.46926 80.70971 37728 ft 475 kts 282°
2025-09-09 12:09 27.53071 80.41996 37739 ft 477 kts 282°
2025-09-09 12:11 27.59366 80.12884 37749 ft 478 kts 282°
2025-09-09 12:13 27.65578 79.83783 37751 ft 477 kts 281°
2025-09-09 12:14 27.71049 79.58377 37741 ft 477 kts 287°
2025-09-09 12:17 27.83328 79.27698 37746 ft 476 kts 289°
2025-09-09 12:19 27.93458 78.99809 35025 ft 496 kts 291°
2025-09-09 12:21 28.04574 78.68963 30853 ft 481 kts 291°
2025-09-09 12:22 28.12081 78.47988 27197 ft 475 kts 291°
2025-09-09 12:24 28.18166 78.30898 24338 ft 458 kts 291°
2025-09-09 12:24 28.20515 78.24275 23243 ft 445 kts 291°
2025-09-09 12:25 28.22757 78.17955 21982 ft 421 kts 291°
2025-09-09 12:25 28.24891 78.11929 20781 ft 404 kts 291°
2025-09-09 12:25 28.25927 78.08995 20194 ft 397 kts 291°
2025-09-09 12:26 28.27939 78.03281 19050 ft 383 kts 291°
2025-09-09 12:27 28.30836 77.95051 17317 ft 366 kts 292°
2025-09-09 12:27 28.32697 77.89777 16093 ft 357 kts 292°
2025-09-09 12:28 28.35403 77.82065 14350 ft 345 kts 292°
2025-09-09 12:28 28.37159 77.77048 13191 ft 339 kts 292°
2025-09-09 12:29 28.38866 77.72156 12227 ft 324 kts 292°
2025-09-09 12:29 28.39693 77.69824 11864 ft 314 kts 294°
2025-09-09 12:30 28.41399 77.65410 11122 ft 298 kts 295°
2025-09-09 12:30 28.43066 77.61237 10429 ft 283 kts 295°
2025-09-09 12:31 28.44617 77.57309 9762 ft 270 kts 295°
2025-09-09 12:31 28.46104 77.53501 8983 ft 260 kts 295°
2025-09-09 12:32 28.47569 77.49804 8059 ft 256 kts 295°
2025-09-09 12:32 28.49762 77.44346 6716 ft 250 kts 295°
2025-09-09 12:33 28.51214 77.40772 5847 ft 246 kts 295°
2025-09-09 12:33 28.51662 77.38934 5426 ft 242 kts 268°
2025-09-09 12:34 28.50901 77.35182 4591 ft 241 kts 264°
2025-09-09 12:34 28.51354 77.31596 4005 ft 222 kts 285°
2025-09-09 12:35 28.52129 77.28324 3463 ft 207 kts 285°
2025-09-09 12:35 28.53204 77.23696 2699 ft 191 kts 286°
2025-09-09 12:36 28.53838 77.20964 2258 ft 161 kts 285°
2025-09-09 12:36 28.54104 77.19816 2065 ft 142 kts 285°
2025-09-09 12:37 28.54589 77.17739 1732 ft 131 kts 284°
2025-09-09 12:37 28.55053 77.15724 1391 ft 132 kts 283°
2025-09-09 12:38 28.55532 77.13693 1075 ft 133 kts 282°
2025-09-09 12:38 28.55991 77.11656 754 ft 123 kts 284°
2025-09-09 12:39 28.56266 77.10475 753 ft 49 kts 284°
2025-09-09 12:39 28.56322 77.10212 751 ft 32 kts 276°
2025-09-09 12:40 28.56253 77.09820 750 ft 10 kts 252°
2025-09-09 12:40 28.56264 77.09643 750 ft 14 kts 283°
2025-09-09 12:41 28.56321 77.09404 750 ft 18 kts 285°
2025-09-09 12:41 28.56355 77.09258 748 ft 20 kts 285°
2025-09-09 12:42 28.56433 77.08924 750 ft 24 kts 285°
2025-09-09 12:42 28.56523 77.08540 750 ft 27 kts 284°
2025-09-09 12:43 28.56570 77.08254 750 ft 16 kts 261°
2025-09-09 12:43 28.56358 77.07972 749 ft 18 kts 194°
2025-09-09 12:44 28.56228 77.07933 748 ft 20 kts 194°
2025-09-09 12:44 28.55931 77.07849 747 ft 24 kts 194°
2025-09-09 12:45 28.55693 77.07780 750 ft 12 kts 193°
2025-09-09 12:45 28.55622 77.07914 751 ft 13 kts 103°
2025-09-09 12:46 28.55701 77.08098 751 ft 7 kts 59°
2025-09-09 12:46 28.55757 77.08155 747 ft 6 kts 13°
2025-09-09 12:47 28.55838 77.08212 747 ft 8 kts 60°
2025-09-09 12:47 28.55872 77.08269 749 ft 0 kts 51°
2025-09-09 12:50 28.55876 77.08261 529 ft 0 kts 58°